KJ4TDM Weather Reports


time (UTC)temp
C
wind
direction
speed
KPH
gust
KPH
rain 1hr
cm
rain 24hr
cm
rain mn
cm
humidity
%
barometer
mb
20260510204604 28 51 0.0 0.0 0.00 0.00 0.00 46 1016.1
20260510203006 27 63 0.0 4.8 0.00 0.00 0.00 47 1016.1
20260510201601 28 276 0.0 1.6 0.00 0.00 0.00 44 1016.1
20260510200013 28 302 0.0 0.0 0.00 0.00 0.00 47 1016.3
20260510194612 27 13 0.0 0.0 0.00 0.00 0.00 49 1016.4
20260510193101 28 308 0.0 1.6 0.00 0.00 0.00 46 1016.5
20260510191537 27 84 0.0 3.2 0.00 0.00 0.00 45 1016.6
20260510190110 27 48 0.0 1.6 0.00 0.00 0.00 44 1016.7
20260510184546 27 64 0.0 0.0 0.00 0.00 0.00 42 1016.8
20260510183008 27 344 0.0 0.0 0.00 0.00 0.00 46 1016.8
20260510181628 27 355 0.0 0.0 0.00 0.00 0.00 51 1016.9
20260510180051 27 45 0.0 8.0 0.00 0.00 0.00 49 1017.1
20260510174503 27 281 0.0 1.6 0.00 0.00 0.00 54 1017.2
20260510173059 26 280 0.0 4.8 0.00 0.00 0.00 57 1017.5
20260510171558 25 98 0.0 3.2 0.00 0.00 0.00 57 1017.6
20260510170001 25 98 0.0 4.8 0.00 0.00 0.00 59 1017.8
20260510164604 25 57 0.0 3.2 0.00 0.00 0.00 62 1017.8
20260510163049 26 39 0.0 4.8 0.00 0.00 0.00 63 1017.9
20260510161614 25 38 0.0 3.2 0.00 0.00 0.00 64 1017.9
20260510160054 25 38 0.0 1.6 0.00 0.00 0.00 65 1018.0
20260510154511 25 38 0.0 4.8 0.00 0.00 0.00 68 1017.9
20260510153104 24 66 0.0 4.8 0.00 0.00 0.00 71 1018.0
20260510151520 23 66 0.0 0.0 0.00 0.00 0.00 71 1017.9
20260510150113 22 61 0.0 4.8 0.00 0.00 0.00 74 1017.9
20260510144600 22 42 0.0 1.6 0.00 0.00 0.00 76 1018.0
20260510143032 21 50 0.0 1.6 0.00 0.00 0.00 79 1018.2
20260510141558 20 43 0.0 0.0 0.00 0.00 0.00 82 1018.3
20260510140111 20 42 0.0 0.0 0.00 0.00 0.00 84 1018.3
20260510134553 20 42 0.0 4.8 0.00 0.00 0.00 86 1018.3
20260510133034 19 38 0.0 0.0 0.00 0.00 0.00 86 1018.2
20260510131610 19 34 0.0 0.0 0.00 0.00 0.00 86 1017.9
20260510130046 19 34 0.0 0.0 0.00 0.00 0.00 87 1017.6
20260510124503 19 32 0.0 0.0 0.00 0.00 0.00 88 1017.5
20260510123100 18 33 0.0 0.0 0.00 0.00 0.00 89 1017.3
20260510120054 18 31 0.0 0.0 0.00 0.00 0.00 91 1016.8
20260510114509 18 293 0.0 0.0 0.00 0.00 0.00 93 1016.5
20260510113102 18 293 0.0 0.0 0.00 0.00 0.00 93 1016.5
20260510111541 18 293 0.0 0.0 0.00 0.00 0.00 93 1016.2
20260510110108 18 293 0.0 0.0 0.00 0.00 0.00 93 1015.8
20260510104550 18 293 0.0 0.0 0.00 0.00 0.00 93 1015.4
20260510103002 18 293 0.0 0.0 0.00 0.00 0.00 94 1015.2
20260510101614 18 293 0.0 0.0 0.00 0.00 0.00 93 1015.3
20260510100049 18 293 0.0 1.6 0.00 0.00 0.00 94 1015.3
20260510094616 18 292 0.0 0.0 0.00 0.00 0.00 94 1015.1
20260510093008 18 292 0.0 0.0 0.00 0.00 0.00 94 1014.9
20260510091605 18 291 0.0 0.0 0.00 0.00 0.00 94 1014.6
20260510090042 18 291 0.0 0.0 0.00 0.00 0.00 94 1014.7
20260510084618 18 291 0.0 0.0 0.00 0.00 0.00 94 1014.7
20260510083054 18 291 0.0 0.0 0.00 0.00 0.00 94 1014.5
20260510081541 18 291 0.0 0.0 0.00 0.00 0.00 95 1014.3
20260510080113 18 291 0.0 0.0 0.00 0.00 0.00 95 1014.2
20260510074550 18 291 0.0 0.0 0.00 0.00 0.00 95 1014.1
20260510073114 18 291 0.0 0.0 0.00 0.00 0.00 94 1014.0
20260510071548 18 291 0.0 0.0 0.00 0.00 0.00 95 1014.0
20260510070114 17 291 0.0 0.0 0.00 0.00 0.00 95 1014.1
20260510064546 17 291 0.0 0.0 0.00 0.00 0.00 95 1014.3
20260510063116 17 291 0.0 0.0 0.00 0.00 0.00 94 1014.2
20260510061553 17 291 0.0 0.0 0.00 0.00 0.00 94 1014.4
20260510060114 17 291 0.0 0.0 0.00 0.00 0.00 94 1014.5
20260510054553 17 291 0.0 0.0 0.00 0.00 0.00 94 1014.7
20260510053007 17 291 0.0 0.0 0.00 0.00 0.00 94 1014.7
20260510051609 17 291 0.0 0.0 0.00 0.00 0.00 95 1014.6
20260510050050 17 291 0.0 0.0 0.00 0.00 0.00 94 1014.6
20260510044606 17 291 0.0 0.0 0.00 0.00 0.00 94 1014.8
20260510043021 17 291 0.0 0.0 0.00 0.00 0.00 94 1014.8
20260510041614 17 291 0.0 0.0 0.00 0.00 0.00 93 1014.8
20260510040110 17 291 0.0 0.0 0.00 0.00 0.00 94 1014.9
20260510034510 17 291 0.0 0.0 0.00 0.00 0.00 93 1014.9
20260510033111 17 291 0.0 0.0 0.00 0.00 0.00 93 1014.9
20260510031552 17 291 0.0 0.0 0.00 0.00 0.00 92 1014.9
20260510030008 17 291 0.0 0.0 0.00 0.00 0.00 92 1014.7
20260510024602 18 291 0.0 0.0 0.00 0.00 0.00 91 1014.5
20260510023040 18 291 0.0 0.0 0.00 0.00 0.00 90 1014.4
20260510021652 18 291 0.0 0.0 0.00 0.00 0.00 91 1014.1
20260510020100 18 291 0.0 0.0 0.00 0.00 0.00 90 1013.9
20260510014526 19 291 0.0 0.0 0.00 0.00 0.00 89 1013.5
20260510013125 19 291 0.0 0.0 0.00 0.00 0.00 89 1013.2
20260510011542 20 291 0.0 0.0 0.00 0.00 0.00 88 1013.2
20260510010006 20 291 0.0 0.0 0.00 0.00 0.00 87 1012.8
20260510004558 20 291 0.0 0.0 0.00 0.00 0.00 85 1012.7
20260510003012 21 291 0.0 0.0 0.00 0.00 0.00 84 1012.6
20260510001609 21 291 0.0 0.0 0.00 0.00 0.00 83 1012.4
20260510000004 22 291 0.0 0.0 0.00 0.00 0.00 81 1012.1
20260509234556 22 291 0.0 0.0 0.00 0.00 0.00 79 1012.2
20260509233012 23 291 0.0 0.0 0.00 0.00 0.00 76 1012.1
20260509231610 23 290 0.0 0.0 0.00 0.00 0.00 75 1012.0
20260509230053 23 290 0.0 0.0 0.00 0.00 0.00 73 1011.9
20260509224622 23 290 0.0 0.0 0.00 0.00 0.00 71 1011.9
20260509223113 24 289 0.0 0.0 0.00 0.00 0.00 70 1011.8
20260509221550 24 289 0.0 0.0 0.00 0.00 0.00 69 1011.7
20260509220006 25 286 0.0 0.0 0.00 0.00 0.00 71 1011.7
20260509214558 25 286 0.0 0.0 0.00 0.00 0.00 69 1011.5
20260509213040 25 275 0.0 0.0 0.00 0.00 0.00 69 1011.2
20260509211613 25 275 0.0 0.0 0.00 0.00 0.00 65 1011.1
20260509210051 25 270 0.0 0.0 0.00 0.00 0.00 67 1010.9